When you browse on this site, cookies collect data to enhance your experience and personalize the content and advertising you see.
Visit our Privacy Policy to learn more. By continuing to use the site, you agree to this use of cookies and data.
  • In Österreich
  • Länderverzeichnis
  • Für 7 Tage
  • Wassertemperatur
  • Wetterkarte
  • News
  • Widgets
  • user-avatar
    Anmelden

    Stündliche Wetter Tolcayuca

    Heute, 23 Oktober, Mittwoch

    Zeit Temperatur Niederschläge Wind Luftdruck Luftfeuchtigkeit
    00:00 +14°C° 0.5 mm 1 m/S 576 mmHg 90%
    01:00 +14°C° 0.5 mm 1 m/S 576 mmHg 91%
    02:00 +13°C° 0.5 mm 1 m/S 575 mmHg 91%
    03:00 +13°C° 0.1 mm 1 m/S 575 mmHg 91%
    04:00 +13°C° 0.1 mm 1 m/S 575 mmHg 91%
    05:00 +13°C° 0.1 mm 1 m/S 575 mmHg 91%
    06:00 +14°C° 0 mm 1 m/S 576 mmHg 87%
    07:00 +14°C° 0 mm 1 m/S 576 mmHg 83%
    08:00 +15°C° 0 mm 1 m/S 577 mmHg 78%
    09:00 +16°C° 0 mm 2 m/S 577 mmHg 72%
    10:00 +17°C° 0 mm 2 m/S 577 mmHg 65%
    11:00 +19°C° 0 mm 2 m/S 577 mmHg 59%
    12:00 +19°C° 0 mm 3 m/S 577 mmHg 58%
    13:00 +19°C° 0 mm 3 m/S 576 mmHg 58%
    14:00 +20°C° 0 mm 4 m/S 576 mmHg 57%
    15:00 +19°C° 0 mm 4 m/S 575 mmHg 63%
    16:00 +17°C° 0 mm 3 m/S 575 mmHg 68%
    17:00 +16°C° 0 mm 3 m/S 574 mmHg 74%
    18:00 +14°C° 0 mm 3 m/S 574 mmHg 79%
    19:00 +14°C° 0 mm 2 m/S 575 mmHg 83%
    20:00 +13°C° 0 mm 2 m/S 575 mmHg 88%
    21:00 +13°C° 0 mm 2 m/S 574 mmHg 88%
    22:00 +13°C° 0 mm 1 m/S 574 mmHg 88%
    23:00 +13°C° 0 mm 1 m/S 574 mmHg 88%

    Morgen, 24 Oktober, Donnerstag

    Zeit Temperatur Niederschläge Wind Luftdruck Luftfeuchtigkeit
    00:00 +13°C° 0 mm 1 m/S 574 mmHg 88%
    01:00 +12°C° 0 mm 1 m/S 573 mmHg 89%
    02:00 +11°C° 0 mm 0 m/S 573 mmHg 89%
    03:00 +11°C° 0 mm 0 m/S 573 mmHg 90%
    04:00 +10°C° 0 mm 0 m/S 572 mmHg 91%
    05:00 +10°C° 0 mm 0 m/S 572 mmHg 92%
    06:00 +11°C° 0 mm 0 m/S 573 mmHg 86%
    07:00 +13°C° 0 mm 0 m/S 574 mmHg 81%
    08:00 +14°C° 0 mm 0 m/S 575 mmHg 75%
    09:00 +18°C° 0 mm 1 m/S 575 mmHg 68%
    10:00 +20°C° 0 mm 1 m/S 576 mmHg 61%
    11:00 +21°C° 0 mm 1 m/S 576 mmHg 53%
    12:00 +21°C° 0 mm 2 m/S 576 mmHg 52%
    13:00 +21°C° 0 mm 3 m/S 575 mmHg 51%
    14:00 +22°C° 0 mm 4 m/S 575 mmHg 50%
    15:00 +20°C° 0.3 mm 3 m/S 574 mmHg 58%
    16:00 +19°C° 0.3 mm 3 m/S 574 mmHg 66%
    17:00 +18°C° 0.3 mm 3 m/S 574 mmHg 73%
    18:00 +17°C° 0.5 mm 2 m/S 574 mmHg 78%
    19:00 +16°C° 0.5 mm 2 m/S 574 mmHg 82%
    20:00 +15°C° 0.5 mm 2 m/S 574 mmHg 87%
    21:00 +15°C° 0.1 mm 2 m/S 574 mmHg 88%
    22:00 +15°C° 0.1 mm 1 m/S 574 mmHg 88%
    23:00 +14°C° 0.1 mm 1 m/S 574 mmHg 89%

    übermorgen, 25 Oktober, Freitag

    Zeit Temperatur Niederschläge Wind Luftdruck Luftfeuchtigkeit
    00:00 +14°C° 0 mm 1 m/S 573 mmHg 89%
    01:00 +13°C° 0 mm 0 m/S 573 mmHg 89%
    02:00 +12°C° 0 mm 0 m/S 573 mmHg 90%
    03:00 +12°C° 0 mm 0 m/S 573 mmHg 90%
    04:00 +13°C° 0 mm 1 m/S 573 mmHg 90%
    05:00 +13°C° 0 mm 1 m/S 573 mmHg 90%
    06:00 +14°C° 0 mm 1 m/S 574 mmHg 85%
    07:00 +15°C° 0 mm 1 m/S 575 mmHg 80%
    08:00 +16°C° 0 mm 2 m/S 576 mmHg 75%
    09:00 +17°C° 0 mm 2 m/S 576 mmHg 69%
    10:00 +19°C° 0 mm 3 m/S 577 mmHg 62%
    11:00 +20°C° 0 mm 4 m/S 577 mmHg 55%
    12:00 +20°C° 0.2 mm 4 m/S 577 mmHg 57%
    13:00 +20°C° 0.2 mm 4 m/S 576 mmHg 59%
    14:00 +19°C° 0.2 mm 5 m/S 576 mmHg 61%
    15:00 +17°C° 0.3 mm 5 m/S 575 mmHg 68%
    16:00 +15°C° 0.3 mm 5 m/S 575 mmHg 75%
    17:00 +13°C° 0.3 mm 4 m/S 574 mmHg 82%
    18:00 +13°C° 0.1 mm 4 m/S 575 mmHg 82%
    19:00 +13°C° 0.1 mm 3 m/S 575 mmHg 82%
    20:00 +12°C° 0.1 mm 3 m/S 575 mmHg 83%
    21:00 +13°C° 0.7 mm 2 m/S 575 mmHg 84%
    22:00 +13°C° 0.7 mm 2 m/S 575 mmHg 86%
    23:00 +13°C° 0.7 mm 1 m/S 575 mmHg 88%

    26 Oktober, Samstag

    Zeit Temperatur Niederschläge Wind Luftdruck Luftfeuchtigkeit
    00:00 +13°C° 0.3 mm 1 m/S 575 mmHg 88%
    01:00 +12°C° 0.3 mm 1 m/S 575 mmHg 87%
    02:00 +12°C° 0.3 mm 2 m/S 574 mmHg 87%
    03:00 +12°C° 0 mm 1 m/S 574 mmHg 87%
    04:00 +12°C° 0 mm 1 m/S 574 mmHg 87%
    05:00 +12°C° 0 mm 1 m/S 575 mmHg 88%
    06:00 +13°C° 0 mm 1 m/S 575 mmHg 84%
    07:00 +14°C° 0 mm 1 m/S 576 mmHg 79%
    08:00 +14°C° 0 mm 1 m/S 576 mmHg 75%
    09:00 +16°C° 0 mm 1 m/S 576 mmHg 70%
    10:00 +18°C° 0 mm 1 m/S 577 mmHg 64%
    11:00 +20°C° 0 mm 1 m/S 577 mmHg 58%
    12:00 +21°C° 0 mm 1 m/S 576 mmHg 56%
    13:00 +20°C° 0 mm 2 m/S 576 mmHg 54%
    14:00 +21°C° 0 mm 2 m/S 576 mmHg 52%
    15:00 +19°C° 0.7 mm 2 m/S 575 mmHg 61%
    16:00 +18°C° 0.7 mm 3 m/S 575 mmHg 69%
    17:00 +17°C° 0.7 mm 3 m/S 575 mmHg 78%
    18:00 +16°C° 0.9 mm 2 m/S 575 mmHg 80%
    19:00 +16°C° 0.9 mm 2 m/S 575 mmHg 82%
    20:00 +15°C° 0.9 mm 1 m/S 575 mmHg 84%
    21:00 +15°C° 0.2 mm 1 m/S 575 mmHg 84%
    22:00 +15°C° 0.2 mm 1 m/S 575 mmHg 84%
    23:00 +14°C° 0.2 mm 1 m/S 575 mmHg 84%

    27 Oktober, Sonntag

    Zeit Temperatur Niederschläge Wind Luftdruck Luftfeuchtigkeit
    00:00 +14°C° 0 mm 1 m/S 574 mmHg 85%
    01:00 +13°C° 0 mm 0 m/S 574 mmHg 85%
    02:00 +12°C° 0 mm 0 m/S 573 mmHg 86%
    03:00 +12°C° 0 mm 0 m/S 573 mmHg 86%
    04:00 +12°C° 0 mm 0 m/S 573 mmHg 86%
    05:00 +12°C° 0 mm 0 m/S 573 mmHg 85%
    06:00 +13°C° 0 mm 0 m/S 574 mmHg 80%
    07:00 +14°C° 0 mm 0 m/S 575 mmHg 74%
    08:00 +16°C° 0 mm 0 m/S 576 mmHg 68%
    09:00 +19°C° 0 mm 1 m/S 576 mmHg 63%
    10:00 +21°C° 0 mm 1 m/S 576 mmHg 58%
    11:00 +22°C° 0 mm 1 m/S 576 mmHg 53%
    12:00 +21°C° 0.1 mm 2 m/S 576 mmHg 52%
    13:00 +21°C° 0.1 mm 3 m/S 576 mmHg 51%
    14:00 +22°C° 0.1 mm 3 m/S 575 mmHg 51%
    15:00 +20°C° 0.8 mm 3 m/S 575 mmHg 59%
    16:00 +19°C° 0.8 mm 3 m/S 575 mmHg 67%
    17:00 +17°C° 0.8 mm 3 m/S 574 mmHg 75%
    18:00 +17°C° 0.4 mm 3 m/S 574 mmHg 77%
    19:00 +16°C° 0.4 mm 2 m/S 575 mmHg 79%
    20:00 +16°C° 0.4 mm 2 m/S 575 mmHg 81%
    21:00 +15°C° 0 mm 2 m/S 575 mmHg 81%
    22:00 +15°C° 0 mm 1 m/S 575 mmHg 80%
    23:00 +15°C° 0 mm 1 m/S 574 mmHg 79%

    28 Oktober, Montag

    Zeit Temperatur Niederschläge Wind Luftdruck Luftfeuchtigkeit
    00:00 +14°C° 0 mm 1 m/S 574 mmHg 79%
    01:00 +14°C° 0 mm 1 m/S 574 mmHg 78%
    02:00 +14°C° 0 mm 1 m/S 574 mmHg 78%
    03:00 +13°C° 0 mm 1 m/S 573 mmHg 78%
    04:00 +13°C° 0 mm 1 m/S 573 mmHg 77%
    05:00 +13°C° 0 mm 1 m/S 573 mmHg 77%
    06:00 +14°C° 0 mm 1 m/S 575 mmHg 70%
    07:00 +16°C° 0 mm 1 m/S 576 mmHg 62%
    08:00 +18°C° 0 mm 1 m/S 577 mmHg 55%
    09:00 +19°C° 0 mm 2 m/S 577 mmHg 51%
    10:00 +20°C° 0 mm 2 m/S 578 mmHg 47%
    11:00 +21°C° 0 mm 3 m/S 578 mmHg 43%
    12:00 +21°C° 0 mm 4 m/S 577 mmHg 47%
    13:00 +20°C° 0 mm 5 m/S 577 mmHg 51%
    14:00 +19°C° 0 mm 6 m/S 576 mmHg 55%
    15:00 +17°C° 0 mm 6 m/S 576 mmHg 62%
    16:00 +15°C° 0 mm 5 m/S 575 mmHg 68%
    17:00 +14°C° 0 mm 5 m/S 575 mmHg 75%
    18:00 +13°C° 0 mm 4 m/S 575 mmHg 75%
    19:00 +13°C° 0 mm 4 m/S 576 mmHg 76%
    20:00 +12°C° 0 mm 3 m/S 576 mmHg 77%
    21:00 +12°C° 0 mm 3 m/S 576 mmHg 78%
    22:00 +12°C° 0 mm 3 m/S 576 mmHg 79%
    23:00 +13°C° 0 mm 2 m/S 576 mmHg 80%

    29 Oktober, Dienstag

    Zeit Temperatur Niederschläge Wind Luftdruck Luftfeuchtigkeit
    00:00 +13°C° 0 mm 2 m/S 576 mmHg 81%
    01:00 +13°C° 0 mm 2 m/S 576 mmHg 82%
    02:00 +13°C° 0 mm 2 m/S 575 mmHg 83%
    03:00 +12°C° 0 mm 2 m/S 575 mmHg 83%
    04:00 +12°C° 0 mm 2 m/S 575 mmHg 84%
    05:00 +12°C° 0 mm 2 m/S 575 mmHg 85%
    06:00 +12°C° 0 mm 2 m/S 576 mmHg 82%
    07:00 +13°C° 0 mm 2 m/S 576 mmHg 79%
    08:00 +12°C° 0 mm 3 m/S 577 mmHg 76%
    09:00 +14°C° 0 mm 2 m/S 577 mmHg 72%
    10:00 +15°C° 0 mm 2 m/S 577 mmHg 69%
    11:00 +16°C° 0 mm 2 m/S 578 mmHg 65%
    12:00 +17°C° 0 mm 2 m/S 577 mmHg 63%
    13:00 +17°C° 0 mm 2 m/S 577 mmHg 61%
    14:00 +18°C° 0 mm 3 m/S 577 mmHg 59%
    15:00 +17°C° 0 mm 3 m/S 576 mmHg 65%
    16:00 +16°C° 0 mm 3 m/S 576 mmHg 71%
    17:00 +14°C° 0 mm 3 m/S 576 mmHg 77%
    18:00 +13°C° 0 mm 3 m/S 576 mmHg 79%
    19:00 +12°C° 0 mm 3 m/S 576 mmHg 82%
    20:00 +12°C° 0 mm 2 m/S 576 mmHg 84%
    21:00 +12°C° 0 mm 2 m/S 576 mmHg 84%
    22:00 +12°C° 0 mm 2 m/S 576 mmHg 84%
    23:00 +11°C° 0 mm 1 m/S 575 mmHg 83%
    Mehr zeigen